EN

Hourly Weather Dzierzkowice

Today, 27 October, Tuesday

Time Temperature Precipitation Wind Pressure Humidity
00:00 +10°C° 0 mm 3 mps 742 mmHg 85%
01:00 +11°C° 0 mm 3 mps 743 mmHg 85%
02:00 +10°C° 0.1 mm 2 mps 743 mmHg 84%
03:00 +10°C° 0.1 mm 2 mps 743 mmHg 83%
04:00 +10°C° 0.1 mm 2 mps 743 mmHg 82%
05:00 +10°C° 0 mm 2 mps 744 mmHg 81%
06:00 +10°C° 0 mm 2 mps 744 mmHg 81%
07:00 +10°C° 0 mm 2 mps 745 mmHg 77%
08:00 +10°C° 0 mm 2 mps 745 mmHg 76%
09:00 +10°C° 0 mm 2 mps 745 mmHg 75%
10:00 +12°C° 0 mm 1 mps 745 mmHg 74%
11:00 +12°C° 0 mm 2 mps 745 mmHg 71%
12:00 +13°C° 0 mm 2 mps 746 mmHg 68%
13:00 +13°C° 0 mm 2 mps 746 mmHg 65%
14:00 +13°C° 0 mm 2 mps 746 mmHg 68%
15:00 +13°C° 0 mm 2 mps 746 mmHg 70%
16:00 +12°C° 0 mm 2 mps 746 mmHg 72%
17:00 +12°C° 0 mm 2 mps 746 mmHg 73%
18:00 +10°C° 0 mm 2 mps 747 mmHg 74%
19:00 +10°C° 0 mm 2 mps 747 mmHg 75%
20:00 +9°C° 0 mm 2 mps 747 mmHg 77%
21:00 +9°C° 0 mm 2 mps 747 mmHg 79%
22:00 +8°C° 0 mm 3 mps 748 mmHg 82%
23:00 +8°C° 0 mm 3 mps 748 mmHg 82%

Tomorrow, 28 October, Wednesday

Time Temperature Precipitation Wind Pressure Humidity
00:00 +8°C° 0 mm 2 mps 748 mmHg 82%
01:00 +7°C° 0 mm 2 mps 748 mmHg 82%
02:00 +7°C° 0 mm 3 mps 748 mmHg 83%
03:00 +7°C° 0 mm 3 mps 747 mmHg 84%
04:00 +7°C° 0 mm 3 mps 747 mmHg 84%
05:00 +7°C° 0 mm 3 mps 747 mmHg 84%
06:00 +5°C° 0 mm 3 mps 748 mmHg 84%
07:00 +5°C° 0 mm 3 mps 748 mmHg 83%
08:00 +7°C° 0 mm 4 mps 748 mmHg 74%
09:00 +10°C° 0 mm 4 mps 748 mmHg 64%
10:00 +12°C° 0 mm 5 mps 748 mmHg 54%
11:00 +13°C° 0 mm 5 mps 748 mmHg 54%
12:00 +13°C° 0 mm 4 mps 748 mmHg 54%
13:00 +13°C° 0 mm 4 mps 748 mmHg 54%
14:00 +13°C° 0 mm 3 mps 748 mmHg 59%
15:00 +12°C° 0 mm 3 mps 748 mmHg 64%
16:00 +11°C° 0 mm 3 mps 748 mmHg 69%
17:00 +11°C° 0 mm 4 mps 748 mmHg 71%
18:00 +10°C° 0 mm 4 mps 749 mmHg 73%
19:00 +9°C° 0 mm 5 mps 749 mmHg 75%
20:00 +9°C° 0 mm 5 mps 749 mmHg 76%
21:00 +9°C° 0 mm 5 mps 749 mmHg 77%
22:00 +10°C° 0 mm 4 mps 749 mmHg 78%
23:00 +10°C° 0 mm 4 mps 749 mmHg 79%

Day after tomorrow, 29 October, Thursday

Time Temperature Precipitation Wind Pressure Humidity
00:00 +8°C° 0 mm 4 mps 749 mmHg 80%
01:00 +8°C° 0 mm 4 mps 749 mmHg 80%
02:00 +8°C° 0 mm 4 mps 749 mmHg 80%
03:00 +8°C° 0 mm 4 mps 749 mmHg 79%
04:00 +8°C° 0 mm 4 mps 749 mmHg 79%
05:00 +8°C° 0 mm 4 mps 749 mmHg 78%
06:00 +10°C° 0 mm 4 mps 749 mmHg 78%
07:00 +10°C° 0 mm 4 mps 749 mmHg 78%
08:00 +9°C° 0 mm 5 mps 749 mmHg 76%
09:00 +10°C° 0 mm 5 mps 749 mmHg 73%
10:00 +11°C° 0 mm 6 mps 749 mmHg 71%
11:00 +10°C° 0.3 mm 5 mps 749 mmHg 74%
12:00 +10°C° 0.3 mm 5 mps 749 mmHg 77%
13:00 +10°C° 0.3 mm 5 mps 749 mmHg 80%
14:00 +9°C° 0.1 mm 5 mps 749 mmHg 78%
15:00 +9°C° 0.1 mm 5 mps 749 mmHg 75%
16:00 +10°C° 0.1 mm 4 mps 750 mmHg 73%
17:00 +8°C° 0.1 mm 4 mps 750 mmHg 75%
18:00 +8°C° 0.1 mm 4 mps 751 mmHg 77%
19:00 +7°C° 0.1 mm 4 mps 752 mmHg 79%
20:00 +6°C° 0 mm 4 mps 752 mmHg 80%
21:00 +6°C° 0 mm 4 mps 753 mmHg 80%
22:00 +6°C° 0 mm 4 mps 753 mmHg 81%
23:00 +5°C° 0 mm 4 mps 753 mmHg 81%

30 October, Friday

Time Temperature Precipitation Wind Pressure Humidity
00:00 +5°C° 0 mm 4 mps 753 mmHg 82%
01:00 +5°C° 0 mm 4 mps 754 mmHg 82%
02:00 +5°C° 0 mm 3 mps 754 mmHg 83%
03:00 +5°C° 0 mm 3 mps 754 mmHg 83%
04:00 +4°C° 0 mm 3 mps 754 mmHg 84%
05:00 +5°C° 0 mm 3 mps 754 mmHg 83%
06:00 +5°C° 0 mm 3 mps 753 mmHg 82%
07:00 +5°C° 0 mm 3 mps 753 mmHg 81%
08:00 +7°C° 0.4 mm 3 mps 753 mmHg 83%
09:00 +7°C° 0.4 mm 3 mps 753 mmHg 86%
10:00 +8°C° 0.4 mm 3 mps 752 mmHg 89%
11:00 +8°C° 0.7 mm 3 mps 752 mmHg 89%
12:00 +9°C° 0.7 mm 3 mps 752 mmHg 90%
13:00 +8°C° 0.7 mm 4 mps 751 mmHg 91%
14:00 +10°C° 0.4 mm 4 mps 751 mmHg 91%
15:00 +9°C° 0.4 mm 5 mps 751 mmHg 92%
16:00 +10°C° 0.4 mm 5 mps 751 mmHg 92%
17:00 +10°C° 0.3 mm 5 mps 751 mmHg 92%
18:00 +10°C° 0.3 mm 6 mps 751 mmHg 92%
19:00 +10°C° 0.3 mm 6 mps 752 mmHg 92%
20:00 +10°C° 0.3 mm 6 mps 752 mmHg 92%
21:00 +10°C° 0.3 mm 5 mps 752 mmHg 93%
22:00 +10°C° 0.3 mm 5 mps 752 mmHg 93%
23:00 +10°C° 0.3 mm 5 mps 752 mmHg 93%

31 October, Saturday

Time Temperature Precipitation Wind Pressure Humidity
00:00 +12°C° 0.3 mm 5 mps 753 mmHg 94%
01:00 +12°C° 0.3 mm 5 mps 753 mmHg 94%
02:00 +12°C° 0.1 mm 4 mps 753 mmHg 94%
03:00 +12°C° 0.1 mm 4 mps 753 mmHg 94%
04:00 +12°C° 0.1 mm 4 mps 754 mmHg 95%
05:00 +12°C° 0.2 mm 4 mps 754 mmHg 95%
06:00 +12°C° 0.2 mm 3 mps 754 mmHg 95%
07:00 +12°C° 0.2 mm 3 mps 754 mmHg 96%
08:00 +12°C° 0.1 mm 3 mps 755 mmHg 96%
09:00 +13°C° 0.1 mm 2 mps 755 mmHg 96%
10:00 +13°C° 0.1 mm 2 mps 755 mmHg 95%
11:00 +13°C° 0.3 mm 2 mps 755 mmHg 96%
12:00 +13°C° 0.3 mm 1 mps 755 mmHg 96%
13:00 +13°C° 0.3 mm 1 mps 755 mmHg 96%
14:00 +13°C° 0.1 mm 1 mps 755 mmHg 96%
15:00 +13°C° 0.1 mm 1 mps 756 mmHg 96%
16:00 +13°C° 0.1 mm 1 mps 756 mmHg 96%
17:00 +13°C° 0 mm 1 mps 756 mmHg 95%
18:00 +12°C° 0 mm 1 mps 756 mmHg 95%
19:00 +12°C° 0 mm 2 mps 756 mmHg 95%
20:00 +12°C° 0 mm 2 mps 756 mmHg 94%
21:00 +11°C° 0 mm 3 mps 756 mmHg 93%
22:00 +11°C° 0 mm 3 mps 756 mmHg 92%
23:00 +11°C° 0 mm 3 mps 756 mmHg 90%

1 November, Sunday

Time Temperature Precipitation Wind Pressure Humidity
00:00 +10°C° 0 mm 4 mps 756 mmHg 88%
01:00 +10°C° 0 mm 4 mps 756 mmHg 86%
02:00 +8°C° 0 mm 4 mps 756 mmHg 86%
03:00 +9°C° 0 mm 3 mps 756 mmHg 87%
04:00 +9°C° 0 mm 3 mps 756 mmHg 87%
05:00 +9°C° 0 mm 3 mps 756 mmHg 88%
06:00 +9°C° 0 mm 3 mps 756 mmHg 89%
07:00 +9°C° 0 mm 2 mps 756 mmHg 90%
08:00 +10°C° 0 mm 2 mps 756 mmHg 86%
09:00 +12°C° 0 mm 2 mps 756 mmHg 83%
10:00 +14°C° 0 mm 2 mps 756 mmHg 79%
11:00 +15°C° 0 mm 2 mps 756 mmHg 76%
12:00 +16°C° 0 mm 2 mps 756 mmHg 73%
13:00 +17°C° 0 mm 2 mps 756 mmHg 70%
14:00 +16°C° 0 mm 2 mps 755 mmHg 73%
15:00 +15°C° 0 mm 2 mps 755 mmHg 77%
16:00 +14°C° 0 mm 2 mps 755 mmHg 81%
17:00 +14°C° 0 mm 2 mps 755 mmHg 84%
18:00 +13°C° 0 mm 2 mps 755 mmHg 87%
19:00 +12°C° 0 mm 2 mps 755 mmHg 90%
20:00 +12°C° 0 mm 2 mps 755 mmHg 90%
21:00 +10°C° 0 mm 2 mps 755 mmHg 90%
22:00 +10°C° 0 mm 2 mps 755 mmHg 91%
23:00 +10°C° 0 mm 2 mps 755 mmHg 90%
Show more